| time (UTC) | temp F | wind direction | speed MPH | gust MPH | rain 1hr in | rain 24hr in | rain mn in | humidity % | barometer mb |
| 20260903180006 | 75 | 23 | 7.0 | 12.0 | 0.00 | 0.00 | 0.00 | 88 | 1010.1 |
| 20260903175506 | 75 | 19 | 7.0 | 9.0 | 0.00 | 0.00 | 0.00 | 88 | 1010.1 |
| 20260903175007 | 75 | 32 | 5.0 | 9.0 | 0.00 | 0.00 | 0.00 | 88 | 1010.1 |
| 20260903174506 | 75 | 5 | 5.0 | 7.0 | 0.00 | 0.00 | 0.00 | 88 | 1010.1 |
| 20260903173506 | 76 | 48 | 2.0 | 7.0 | 0.00 | 0.00 | 0.00 | 88 | 1010.1 |
| 20260903173007 | 75 | 3 | 3.0 | 9.0 | 0.00 | 0.00 | 0.00 | 89 | 1010.1 |
| 20260903172008 | 75 | 32 | 5.0 | 9.0 | 0.00 | 0.00 | 0.00 | 89 | 1010.1 |
| 20260903171506 | 75 | 31 | 7.0 | 9.0 | 0.00 | 0.00 | 0.00 | 88 | 1010.1 |
| 20260903170506 | 75 | 15 | 4.0 | 7.0 | 0.00 | 0.00 | 0.00 | 88 | 1010.1 |
| 20260903165505 | 75 | 21 | 5.0 | 7.0 | 0.00 | 0.00 | 0.00 | 87 | 1010.1 |
| 20260903165006 | 75 | 16 | 5.0 | 7.0 | 0.00 | 0.00 | 0.00 | 87 | 1010.1 |
| 20260903164505 | 75 | 6 | 5.0 | 7.0 | 0.00 | 0.00 | 0.00 | 87 | 1010.1 |
| 20260903164007 | 76 | 16 | 2.0 | 5.0 | 0.00 | 0.00 | 0.00 | 86 | 1010.1 |
| 20260903163506 | 76 | 22 | 2.0 | 7.0 | 0.00 | 0.00 | 0.00 | 86 | 1010.1 |
| 20260903163006 | 75 | 35 | 4.0 | 7.0 | 0.00 | 0.00 | 0.00 | 86 | 1010.1 |
| 20260903162006 | 76 | 23 | 2.0 | 7.0 | 0.00 | 0.00 | 0.00 | 84 | 1010.1 |
| 20260903161506 | 76 | 26 | 2.0 | 7.0 | 0.00 | 0.00 | 0.00 | 83 | 1010.1 |
| 20260903161006 | 77 | 4 | 2.0 | 7.0 | 0.00 | 0.00 | 0.00 | 83 | 1010.1 |
| 20260903160506 | 76 | 9 | 5.0 | 7.0 | 0.00 | 0.00 | 0.00 | 80 | 1010.1 |
| 20260903160005 | 77 | 26 | 5.0 | 7.0 | 0.00 | 0.00 | 0.00 | 78 | 1010.1 |
| 20260903155506 | 78 | 13 | 3.0 | 7.0 | 0.00 | 0.00 | 0.00 | 72 | 1010.1 |
| 20260903155007 | 79 | 258 | 5.0 | 7.0 | 0.00 | 0.00 | 0.00 | 69 | 1010.1 |
| 20260903154505 | 79 | 235 | 7.0 | 9.0 | 0.00 | 0.00 | 0.00 | 71 | 1010.1 |
| 20260903154007 | 79 | 250 | 7.0 | 9.0 | 0.00 | 0.00 | 0.00 | 73 | 1010.1 |
| 20260903153507 | 79 | 234 | 9.0 | 14.0 | 0.00 | 0.00 | 0.00 | 73 | 1010.1 |
| 20260903152506 | 78 | 227 | 7.0 | 9.0 | 0.00 | 0.00 | 0.00 | 76 | 1010.1 |
| 20260903152006 | 78 | 241 | 7.0 | 9.0 | 0.00 | 0.00 | 0.00 | 76 | 1010.1 |
| 20260903151505 | 78 | 285 | 9.0 | 9.0 | 0.00 | 0.00 | 0.00 | 76 | 1010.1 |
| 20260903151007 | 77 | 269 | 7.0 | 12.0 | 0.00 | 0.00 | 0.00 | 77 | 1010.1 |
| 20260903145505 | 77 | 245 | 9.0 | 12.0 | 0.00 | 0.00 | 0.00 | 79 | 1010.1 |
| 20260903145006 | 77 | 251 | 7.0 | 9.0 | 0.00 | 0.00 | 0.00 | 81 | 1010.1 |
| 20260903144506 | 77 | 254 | 7.0 | 9.0 | 0.00 | 0.00 | 0.00 | 83 | 1010.1 |
| 20260903144007 | 77 | 239 | 9.0 | 9.0 | 0.00 | 0.00 | 0.00 | 82 | 1010.1 |
| 20260903143506 | 77 | 245 | 7.0 | 9.0 | 0.00 | 0.00 | 0.00 | 82 | 1010.1 |
| 20260903143006 | 77 | 251 | 9.0 | 12.0 | 0.00 | 0.00 | 0.00 | 82 | 1010.1 |
| 20260903142506 | 77 | 247 | 7.0 | 12.0 | 0.00 | 0.00 | 0.00 | 83 | 1010.1 |
| 20260903142007 | 77 | 257 | 6.0 | 12.0 | 0.00 | 0.00 | 0.00 | 85 | 1010.1 |
| 20260903141506 | 77 | 266 | 7.0 | 9.0 | 0.00 | 0.00 | 0.00 | 85 | 1010.1 |
| 20260903141006 | 76 | 270 | 6.0 | 7.0 | 0.00 | 0.00 | 0.00 | 86 | 1010.1 |
| 20260903140506 | 76 | 264 | 6.0 | 7.0 | 0.00 | 0.00 | 0.00 | 87 | 1010.1 |
| 20260903140005 | 75 | 278 | 5.0 | 9.0 | 0.00 | 0.00 | 0.00 | 88 | 1010.1 |
| 20260903135006 | 75 | 269 | 7.0 | 14.0 | 0.00 | 0.00 | 0.00 | 90 | 1010.1 |
| 20260903134505 | 75 | 271 | 9.0 | 14.0 | 0.00 | 0.00 | 0.00 | 90 | 1010.1 |
| 20260903134006 | 74 | 254 | 9.0 | 14.0 | 0.00 | 0.00 | 0.00 | 91 | 1010.1 |
| 20260903133006 | 74 | 253 | 7.0 | 9.0 | 0.00 | 0.00 | 0.00 | 92 | 1010.1 |
| 20260903132006 | 74 | 258 | 7.0 | 12.0 | 0.00 | 0.00 | 0.00 | 92 | 1011.1 |
| 20260903131505 | 74 | 264 | 9.0 | 12.0 | 0.00 | 0.00 | 0.00 | 92 | 1011.1 |
| 20260903131006 | 73 | 262 | 9.0 | 12.0 | 0.00 | 0.00 | 0.00 | 93 | 1011.1 |
| 20260903130506 | 73 | 259 | 9.0 | 12.0 | 0.00 | 0.00 | 0.00 | 93 | 1011.1 |
| 20260903130006 | 73 | 248 | 9.0 | 12.0 | 0.00 | 0.00 | 0.00 | 93 | 1011.1 |
| 20260903125506 | 73 | 253 | 9.0 | 12.0 | 0.00 | 0.00 | 0.00 | 94 | 1011.1 |
| 20260903125006 | 73 | 248 | 9.0 | 14.0 | 0.00 | 0.00 | 0.00 | 94 | 1011.3 |
| 20260903124505 | 73 | 251 | 9.0 | 14.0 | 0.00 | 0.00 | 0.00 | 94 | 1011.1 |
| 20260903124007 | 73 | 259 | 9.0 | 14.0 | 0.00 | 0.00 | 0.00 | 94 | 1011.1 |
| 20260903123506 | 73 | 259 | 9.0 | 12.0 | 0.00 | 0.00 | 0.00 | 94 | 1011.1 |
| 20260903123006 | 72 | 254 | 9.0 | 12.0 | 0.00 | 0.00 | 0.00 | 95 | 1011.1 |
| 20260903122505 | 72 | 262 | 9.0 | 12.0 | 0.00 | 0.00 | 0.00 | 95 | 1011.1 |
| 20260903121506 | 72 | 261 | 7.0 | 9.0 | 0.00 | 0.00 | 0.00 | 95 | 1011.1 |
| 20260903120506 | 72 | 264 | 7.0 | 9.0 | 0.00 | 0.00 | 0.00 | 96 | 1010.1 |
| 20260903120006 | 71 | 273 | 7.0 | 9.0 | 0.00 | 0.00 | 0.00 | 96 | 1010.1 |
| 20260903115505 | 71 | 263 | 7.0 | 9.0 | 0.00 | 0.00 | 0.00 | 96 | 1010.1 |
| 20260903115007 | 71 | 253 | 7.0 | 9.0 | 0.00 | 0.00 | 0.00 | 97 | 1010.1 |
| 20260903114505 | 71 | 242 | 7.0 | 9.0 | 0.00 | 0.00 | 0.00 | 97 | 1010.1 |
| 20260903114010 | 71 | 252 | 7.0 | 9.0 | 0.00 | 0.00 | 0.00 | 97 | 1010.1 |
| 20260903113506 | 71 | 249 | 7.0 | 9.0 | 0.00 | 0.00 | 0.00 | 97 | 1010.1 |
| 20260903113006 | 71 | 244 | 7.0 | 9.0 | 0.00 | 0.00 | 0.00 | 97 | 1010.1 |
| 20260903112506 | 71 | 240 | 7.0 | 9.0 | 0.00 | 0.00 | 0.00 | 97 | 1010.1 |
| 20260903112007 | 71 | 239 | 7.0 | 9.0 | 0.00 | 0.00 | 0.00 | 97 | 1010.1 |
| 20260903111505 | 71 | 242 | 7.0 | 9.0 | 0.00 | 0.00 | 0.00 | 97 | 1010.1 |
| 20260903110506 | 70 | 254 | 7.0 | 9.0 | 0.00 | 0.00 | 0.00 | 98 | 1010.1 |
| 20260903110006 | 70 | 250 | 7.0 | 7.0 | 0.00 | 0.00 | 0.00 | 98 | 1010.1 |
| 20260903105007 | 71 | 241 | 7.0 | 7.0 | 0.00 | 0.00 | 0.00 | 99 | 1010.1 |
| 20260903104505 | 71 | 238 | 7.0 | 7.0 | 0.00 | 0.00 | 0.00 | 99 | 1010.1 |
| 20260903104007 | 71 | 242 | 7.0 | 7.0 | 0.00 | 0.00 | 0.00 | 99 | 1010.1 |
| 20260903103506 | 71 | 237 | 7.0 | 7.0 | 0.00 | 0.00 | 0.00 | 99 | 1010.1 |
| 20260903103006 | 71 | 236 | 7.0 | 7.0 | 0.00 | 0.00 | 0.00 | 99 | 1010.1 |
| 20260903102505 | 71 | 245 | 7.0 | 7.0 | 0.00 | 0.00 | 0.00 | 99 | 1010.1 |
| 20260903102007 | 71 | 240 | 6.0 | 7.0 | 0.00 | 0.00 | 0.00 | 99 | 1010.1 |
| 20260903101006 | 71 | 229 | 7.0 | 7.0 | 0.00 | 0.00 | 0.00 | 100 | 1010.1 |
| 20260903100506 | 71 | 233 | 5.0 | 7.0 | 0.00 | 0.00 | 0.00 | 100 | 1010.1 |
| 20260903100005 | 71 | 230 | 5.0 | 7.0 | 0.00 | 0.00 | 0.00 | 100 | 1010.1 |
| 20260903095506 | 71 | 229 | 7.0 | 7.0 | 0.00 | 0.00 | 0.00 | 100 | 1010.1 |
| 20260903094507 | 71 | 223 | 7.0 | 7.0 | 0.00 | 0.00 | 0.00 | 100 | 1009.2 |
| 20260903094008 | 71 | 224 | 7.0 | 7.0 | 0.00 | 0.00 | 0.00 | 100 | 1010.1 |
| 20260903093508 | 71 | 224 | 7.0 | 7.0 | 0.00 | 0.00 | 0.00 | 100 | 1010.1 |
| 20260903093008 | 70 | 219 | 7.0 | 7.0 | 0.00 | 0.00 | 0.00 | 100 | 1010.1 |
| 20260903092507 | 70 | 227 | 5.0 | 7.0 | 0.00 | 0.00 | 0.00 | 100 | 1010.1 |
| 20260903091507 | 70 | 219 | 5.0 | 5.0 | 0.00 | 0.00 | 0.00 | 100 | 1010.1 |
| 20260903091009 | 70 | 234 | 2.0 | 5.0 | 0.00 | 0.00 | 0.00 | 100 | 1010.1 |
| 20260903090508 | 70 | 228 | 5.0 | 5.0 | 0.00 | 0.00 | 0.00 | 100 | 1010.1 |
| 20260903090008 | 70 | 211 | 5.0 | 5.0 | 0.00 | 0.00 | 0.00 | 100 | 1010.1 |
| 20260903085507 | 70 | 227 | 2.0 | 5.0 | 0.00 | 0.00 | 0.00 | 100 | 1010.1 |
| 20260903084507 | 70 | 193 | 5.0 | 5.0 | 0.00 | 0.00 | 0.00 | 100 | 1010.1 |
| 20260903084009 | 70 | 198 | 5.0 | 5.0 | 0.00 | 0.00 | 0.00 | 100 | 1010.1 |
| 20260903083009 | 70 | 177 | 2.0 | 5.0 | 0.00 | 0.00 | 0.00 | 100 | 1010.1 |
| 20260903082507 | 70 | 214 | 0.0 | 2.0 | 0.00 | 0.00 | 0.00 | 100 | 1010.1 |
| 20260903082008 | 70 | 236 | 0.0 | 0.0 | 0.00 | 0.00 | 0.00 | 100 | 1010.1 |
| 20260903081008 | 70 | 238 | 0.0 | 2.0 | 0.00 | 0.00 | 0.00 | 100 | 1010.1 |
| 20260903080508 | 70 | 214 | 0.0 | 2.0 | 0.00 | 0.00 | 0.00 | 100 | 1010.1 |
| 20260903080007 | 70 | 222 | 0.0 | 2.0 | 0.00 | 0.00 | 0.00 | 100 | 1010.1 |
| 20260903075008 | 70 | 206 | 0.0 | 2.0 | 0.00 | 0.00 | 0.00 | 100 | 1010.1 |
| 20260903074507 | 70 | 200 | 0.0 | 2.0 | 0.00 | 0.00 | 0.00 | 100 | 1010.1 |
| 20260903074008 | 70 | 176 | 0.0 | 0.0 | 0.00 | 0.00 | 0.00 | 100 | 1010.1 |
| 20260903073507 | 70 | 181 | 0.0 | 0.0 | 0.00 | 0.00 | 0.00 | 100 | 1009.1 |
| 20260903073008 | 70 | 176 | 0.0 | 2.0 | 0.00 | 0.00 | 0.00 | 100 | 1009.5 |
| 20260903072507 | 70 | 183 | 0.0 | 2.0 | 0.00 | 0.00 | 0.00 | 100 | 1009.1 |
| 20260903072008 | 70 | 194 | 0.0 | 5.0 | 0.00 | 0.00 | 0.00 | 100 | 1010.1 |
| 20260903071507 | 70 | 179 | 4.0 | 5.0 | 0.00 | 0.00 | 0.00 | 100 | 1010.1 |
| 20260903071009 | 70 | 199 | 5.0 | 5.0 | 0.00 | 0.00 | 0.00 | 100 | 1010.1 |
| 20260903070507 | 70 | 192 | 5.0 | 5.0 | 0.00 | 0.00 | 0.00 | 100 | 1010.1 |
| 20260903070007 | 70 | 191 | 2.0 | 5.0 | 0.00 | 0.00 | 0.00 | 100 | 1010.1 |
| 20260903064507 | 70 | 186 | 5.0 | 5.0 | 0.00 | 0.00 | 0.00 | 100 | 1010.1 |
| 20260903064008 | 70 | 191 | 2.0 | 5.0 | 0.00 | 0.00 | 0.00 | 100 | 1010.1 |
| 20260903063508 | 70 | 215 | 2.0 | 5.0 | 0.00 | 0.00 | 0.00 | 100 | 1010.1 |
| 20260903063008 | 70 | 202 | 0.0 | 2.0 | 0.00 | 0.00 | 0.00 | 100 | 1010.1 |
| 20260903062507 | 70 | 170 | 0.0 | 5.0 | 0.00 | 0.00 | 0.00 | 100 | 1010.1 |
| 20260903062008 | 70 | 175 | 0.0 | 5.0 | 0.00 | 0.00 | 0.00 | 100 | 1010.1 |
| 20260903061507 | 70 | 191 | 1.0 | 5.0 | 0.00 | 0.00 | 0.00 | 100 | 1010.1 |
| 20260903061008 | 70 | 223 | 0.0 | 2.0 | 0.00 | 0.00 | 0.00 | 100 | 1010.1 |
| 20260903060007 | 70 | 339 | 0.0 | 5.0 | 0.00 | 0.00 | 0.00 | 100 | 1010.1 |
| 20260903055507 | 70 | 4 | 2.0 | 5.0 | 0.00 | 0.00 | 0.00 | 100 | 1010.1 |
| 20260903054507 | 70 | 299 | 5.0 | 5.0 | 0.00 | 0.00 | 0.00 | 100 | 1010.1 |
| 20260903054008 | 70 | 279 | 5.0 | 5.0 | 0.00 | 0.00 | 0.00 | 100 | 1010.1 |
| 20260903053507 | 70 | 275 | 2.0 | 5.0 | 0.00 | 0.00 | 0.00 | 100 | 1010.1 |
| 20260903053008 | 70 | 303 | 0.0 | 5.0 | 0.00 | 0.00 | 0.00 | 99 | 1010.1 |
| 20260903052507 | 70 | 297 | 0.0 | 5.0 | 0.00 | 0.00 | 0.00 | 99 | 1010.1 |
| 20260903052007 | 70 | 257 | 0.0 | 5.0 | 0.00 | 0.00 | 0.00 | 99 | 1010.1 |
| 20260903051507 | 70 | 320 | 2.0 | 5.0 | 0.00 | 0.00 | 0.00 | 99 | 1010.1 |
| 20260903051008 | 70 | 279 | 5.0 | 5.0 | 0.00 | 0.00 | 0.00 | 99 | 1010.1 |
| 20260903050508 | 70 | 276 | 5.0 | 5.0 | 0.00 | 0.00 | 0.00 | 99 | 1010.1 |
| 20260903050007 | 70 | 279 | 2.0 | 5.0 | 0.00 | 0.00 | 0.00 | 99 | 1010.1 |
| 20260903045506 | 70 | 294 | 2.0 | 5.0 | 0.00 | 0.00 | 0.00 | 99 | 1009.1 |
| 20260903045007 | 70 | 313 | 2.0 | 7.0 | 0.00 | 0.00 | 0.00 | 99 | 1009.1 |
| 20260903044507 | 70 | 316 | 5.0 | 7.0 | 0.00 | 0.00 | 0.00 | 99 | 1009.1 |
| 20260903044008 | 70 | 251 | 5.0 | 9.0 | 0.00 | 0.00 | 0.00 | 99 | 1009.1 |
| 20260903043508 | 70 | 221 | 7.0 | 9.0 | 0.00 | 0.00 | 0.00 | 99 | 1009.1 |
| 20260903043008 | 70 | 211 | 9.0 | 12.0 | 0.00 | 0.00 | 0.00 | 99 | 1009.1 |
| 20260903042507 | 70 | 210 | 9.0 | 12.0 | 0.00 | 0.00 | 0.00 | 99 | 1009.1 |
| 20260903042008 | 70 | 212 | 7.0 | 9.0 | 0.00 | 0.00 | 0.00 | 99 | 1009.1 |
| 20260903041507 | 70 | 217 | 7.0 | 12.0 | 0.00 | 0.00 | 0.00 | 99 | 1009.1 |
| 20260903041009 | 70 | 210 | 7.0 | 12.0 | 0.00 | 0.00 | 0.00 | 99 | 1008.8 |
| 20260903040508 | 70 | 205 | 7.0 | 9.0 | 0.00 | 0.00 | 0.00 | 99 | 1009.1 |
| 20260903040009 | 70 | 201 | 7.0 | 9.0 | 0.00 | 0.00 | 0.00 | 99 | 1009.1 |
| 20260903035507 | 70 | 203 | 7.0 | 7.0 | 0.00 | 0.00 | 0.00 | 99 | 1009.1 |
| 20260903035007 | 70 | 206 | 6.0 | 7.0 | 0.00 | 0.00 | 0.00 | 99 | 1009.1 |
| 20260903034506 | 70 | 201 | 5.0 | 7.0 | 0.00 | 0.00 | 0.00 | 99 | 1009.1 |
| 20260903034008 | 70 | 202 | 5.0 | 9.0 | 0.00 | 0.00 | 0.00 | 99 | 1009.1 |
| 20260903033508 | 70 | 213 | 7.0 | 9.0 | 0.00 | 0.00 | 0.00 | 99 | 1009.1 |
| 20260903033007 | 70 | 221 | 7.0 | 9.0 | 0.00 | 0.00 | 0.00 | 99 | 1009.1 |
| 20260903032506 | 70 | 224 | 9.0 | 12.0 | 0.00 | 0.00 | 0.00 | 99 | 1009.1 |
| 20260903031008 | 70 | 226 | 12.0 | 14.0 | 0.00 | 0.00 | 0.00 | 99 | 1010.1 |
| 20260903030507 | 70 | 226 | 9.0 | 12.0 | 0.00 | 0.00 | 0.00 | 99 | 1010.1 |
| 20260903030007 | 70 | 212 | 10.0 | 14.0 | 0.00 | 0.00 | 0.00 | 99 | 1010.1 |
| 20260903025507 | 70 | 203 | 12.0 | 16.0 | 0.00 | 0.00 | 0.00 | 99 | 1009.9 |
| 20260903025007 | 70 | 210 | 12.0 | 16.0 | 0.00 | 0.00 | 0.00 | 99 | 1010.1 |
| 20260903024507 | 70 | 200 | 14.0 | 18.0 | 0.00 | 0.00 | 0.00 | 99 | 1009.9 |
| 20260903024007 | 70 | 204 | 14.0 | 18.0 | 0.00 | 0.00 | 0.00 | 99 | 1010.1 |
| 20260903023507 | 70 | 211 | 14.0 | 18.0 | 0.00 | 0.00 | 0.00 | 99 | 1009.6 |
| 20260903023007 | 70 | 215 | 12.0 | 18.0 | 0.00 | 0.00 | 0.00 | 99 | 1010.1 |
| 20260903022506 | 70 | 202 | 12.0 | 18.0 | 0.00 | 0.00 | 0.00 | 99 | 1009.1 |
| 20260903022008 | 70 | 197 | 15.0 | 18.0 | 0.00 | 0.00 | 0.00 | 99 | 1010.1 |
| 20260903021007 | 70 | 233 | 14.0 | 20.0 | 0.00 | 0.00 | 0.00 | 99 | 1010.1 |
| 20260903020507 | 70 | 208 | 14.0 | 18.0 | 0.00 | 0.00 | 0.00 | 99 | 1010.1 |
| 20260903020007 | 70 | 221 | 14.0 | 18.0 | 0.00 | 0.00 | 0.00 | 99 | 1010.1 |
| 20260903015507 | 70 | 196 | 12.0 | 18.0 | 0.00 | 0.00 | 0.00 | 99 | 1009.1 |
| 20260903015008 | 69 | 192 | 12.0 | 18.0 | 0.00 | 0.00 | 0.00 | 99 | 1008.1 |
| 20260903014506 | 69 | 177 | 12.0 | 20.0 | 0.00 | 0.00 | 0.00 | 99 | 1008.6 |
| 20260903014008 | 69 | 181 | 9.0 | 20.0 | 0.00 | 0.00 | 0.00 | 99 | 1009.1 |
| 20260903013508 | 69 | 181 | 9.0 | 20.0 | 0.00 | 0.00 | 0.00 | 99 | 1009.1 |
| 20260903013008 | 69 | 184 | 12.0 | 20.0 | 0.00 | 0.00 | 0.00 | 99 | 1009.1 |
| 20260903012007 | 69 | 175 | 6.0 | 12.0 | 0.00 | 0.00 | 0.00 | 98 | 1010.1 |
| 20260903011507 | 70 | 180 | 5.0 | 9.0 | 0.00 | 0.00 | 0.00 | 98 | 1010.1 |
| 20260903010507 | 70 | 184 | 5.0 | 5.0 | 0.00 | 0.00 | 0.00 | 98 | 1010.1 |
| 20260903010006 | 70 | 142 | 5.0 | 5.0 | 0.00 | 0.00 | 0.00 | 98 | 1010.1 |
| 20260903005507 | 70 | 146 | 5.0 | 7.0 | 0.00 | 0.00 | 0.00 | 98 | 1010.1 |
| 20260903005008 | 70 | 141 | 2.0 | 7.0 | 0.00 | 0.00 | 0.00 | 98 | 1010.1 |
| 20260903004507 | 70 | 151 | 2.0 | 9.0 | 0.00 | 0.00 | 0.00 | 97 | 1010.1 |
| 20260903004008 | 70 | 159 | 5.0 | 12.0 | 0.00 | 0.00 | 0.00 | 97 | 1010.1 |
| 20260903003507 | 69 | 197 | 9.0 | 12.0 | 0.00 | 0.00 | 0.00 | 97 | 1010.1 |
| 20260903003007 | 70 | 211 | 7.0 | 9.0 | 0.00 | 0.00 | 0.00 | 97 | 1010.1 |
| 20260903002507 | 70 | 191 | 9.0 | 9.0 | 0.00 | 0.00 | 0.00 | 97 | 1010.1 |
| 20260903002008 | 69 | 190 | 3.0 | 9.0 | 0.00 | 0.00 | 0.00 | 97 | 1010.1 |
| 20260903001506 | 69 | 143 | 0.0 | 5.0 | 0.00 | 0.00 | 0.00 | 97 | 1010.1 |
| 20260903000507 | 69 | 133 | 5.0 | 9.0 | 0.00 | 0.00 | 0.00 | 97 | 1009.1 |
| 20260903000006 | 69 | 108 | 2.0 | 9.0 | 0.00 | 0.00 | 0.00 | 96 | 1010.1 |
| 20260902235506 | 69 | 180 | 2.0 | 9.0 | 0.00 | 0.00 | 0.00 | 96 | 1010.4 |
| 20260902234507 | 69 | 195 | 7.0 | 12.0 | 0.00 | 0.00 | 0.00 | 95 | 1010.1 |
| 20260902234008 | 69 | 193 | 5.0 | 12.0 | 0.00 | 0.00 | 0.00 | 95 | 1009.1 |
| 20260902233507 | 69 | 320 | 0.0 | 7.0 | 0.00 | 0.00 | 0.00 | 95 | 1009.5 |
| 20260902233008 | 69 | 25 | 2.0 | 12.0 | 0.00 | 0.00 | 0.00 | 95 | 1010.1 |
| 20260902232506 | 69 | 304 | 6.0 | 22.0 | 0.00 | 0.00 | 0.00 | 94 | 1012.1 |
| 20260902231507 | 68 | 29 | 16.0 | 26.0 | 0.00 | 0.00 | 0.00 | 93 | 1010.1 |
| 20260902230508 | 73 | 357 | 7.0 | 16.0 | 0.00 | 0.00 | 0.00 | 91 | 1009.1 |
| 20260902230007 | 74 | 26 | 5.0 | 9.0 | 0.00 | 0.00 | 0.00 | 93 | 1008.7 |
| 20260902225007 | 74 | 115 | 4.0 | 5.0 | 0.00 | 0.00 | 0.00 | 92 | 1008.1 |
| 20260902224008 | 75 | 110 | 2.0 | 5.0 | 0.00 | 0.00 | 0.00 | 92 | 1008.1 |
| 20260902223507 | 75 | 117 | 2.0 | 5.0 | 0.00 | 0.00 | 0.00 | 91 | 1009.1 |
| 20260902223007 | 75 | 115 | 2.0 | 5.0 | 0.00 | 0.00 | 0.00 | 91 | 1008.1 |
| 20260902222506 | 75 | 118 | 2.0 | 5.0 | 0.00 | 0.00 | 0.00 | 91 | 1008.1 |
| 20260902222008 | 75 | 122 | 2.0 | 5.0 | 0.00 | 0.00 | 0.00 | 90 | 1008.1 |
| 20260902221507 | 75 | 115 | 3.0 | 5.0 | 0.00 | 0.00 | 0.00 | 89 | 1008.1 |
| 20260902221008 | 75 | 113 | 5.0 | 7.0 | 0.00 | 0.00 | 0.00 | 88 | 1008.1 |
| 20260902220007 | 75 | 95 | 7.0 | 7.0 | 0.00 | 0.00 | 0.00 | 86 | 1008.1 |
| 20260902215008 | 76 | 83 | 6.0 | 7.0 | 0.00 | 0.00 | 0.00 | 83 | 1008.1 |
| 20260902214507 | 77 | 86 | 5.0 | 7.0 | 0.00 | 0.00 | 0.00 | 80 | 1008.1 |
| 20260902214007 | 78 | 92 | 5.0 | 5.0 | 0.00 | 0.00 | 0.00 | 79 | 1008.1 |
| 20260902213507 | 79 | 76 | 2.0 | 5.0 | 0.00 | 0.00 | 0.00 | 77 | 1008.1 |
| 20260902213007 | 80 | 74 | 2.0 | 2.0 | 0.00 | 0.00 | 0.00 | 76 | 1008.1 |
| 20260902212506 | 81 | 69 | 0.0 | 2.0 | 0.00 | 0.00 | 0.00 | 76 | 1008.1 |
| 20260902212007 | 81 | 65 | 0.0 | 2.0 | 0.00 | 0.00 | 0.00 | 73 | 1008.1 |
| 20260902211506 | 84 | 76 | 0.0 | 2.0 | 0.00 | 0.00 | 0.00 | 72 | 1008.1 |
| 20260902211008 | 85 | 165 | 0.0 | 5.0 | 0.00 | 0.00 | 0.00 | 72 | 1008.1 |
| 20260902210507 | 85 | 167 | 1.0 | 5.0 | 0.00 | 0.00 | 0.00 | 72 | 1008.1 |
| 20260902205007 | 85 | 209 | 2.0 | 5.0 | 0.00 | 0.00 | 0.00 | 71 | 1009.0 |
| 20260902204506 | 85 | 208 | 5.0 | 5.0 | 0.00 | 0.00 | 0.00 | 71 | 1009.1 |
| 20260902204007 | 85 | 201 | 3.0 | 5.0 | 0.00 | 0.00 | 0.00 | 71 | 1009.1 |
| 20260902203507 | 85 | 232 | 2.0 | 5.0 | 0.00 | 0.00 | 0.00 | 71 | 1009.2 |
| 20260902203007 | 85 | 238 | 5.0 | 7.0 | 0.00 | 0.00 | 0.00 | 71 | 1010.1 |
| 20260902202506 | 85 | 213 | 2.0 | 7.0 | 0.00 | 0.00 | 0.00 | 71 | 1010.1 |
| 20260902202008 | 85 | 235 | 5.0 | 7.0 | 0.00 | 0.00 | 0.00 | 72 | 1010.1 |
| 20260902201506 | 84 | 243 | 7.0 | 9.0 | 0.00 | 0.00 | 0.00 | 72 | 1010.1 |
| 20260902201007 | 83 | 249 | 7.0 | 9.0 | 0.00 | 0.00 | 0.00 | 73 | 1010.1 |
| 20260902200507 | 84 | 228 | 7.0 | 12.0 | 0.00 | 0.00 | 0.00 | 73 | 1010.1 |
| 20260902200006 | 83 | 233 | 7.0 | 12.0 | 0.00 | 0.00 | 0.00 | 74 | 1010.1 |
| 20260902195506 | 83 | 236 | 7.0 | 12.0 | 0.00 | 0.00 | 0.00 | 74 | 1010.1 |
| 20260902194506 | 83 | 245 | 9.0 | 14.0 | 0.00 | 0.00 | 0.00 | 74 | 1010.1 |
| 20260902194007 | 83 | 245 | 11.0 | 14.0 | 0.00 | 0.00 | 0.00 | 74 | 1010.1 |
| 20260902192506 | 83 | 228 | 13.0 | 18.0 | 0.00 | 0.00 | 0.00 | 74 | 1010.1 |
| 20260902191506 | 83 | 244 | 14.0 | 16.0 | 0.00 | 0.00 | 0.00 | 75 | 1010.1 |
| 20260902191007 | 83 | 234 | 12.0 | 16.0 | 0.00 | 0.00 | 0.00 | 76 | 1010.1 |
| 20260902190507 | 83 | 232 | 12.0 | 16.0 | 0.00 | 0.00 | 0.00 | 76 | 1010.1 |
| 20260902190007 | 83 | 227 | 12.0 | 14.0 | 0.00 | 0.00 | 0.00 | 76 | 1010.1 |
| 20260902184506 | 83 | 237 | 9.0 | 12.0 | 0.00 | 0.00 | 0.00 | 75 | 1010.1 |
| 20260902184007 | 83 | 229 | 9.0 | 12.0 | 0.00 | 0.00 | 0.00 | 75 | 1010.1 |
| 20260902183507 | 83 | 231 | 8.0 | 12.0 | 0.00 | 0.00 | 0.00 | 75 | 1010.1 |
| 20260902183007 | 83 | 229 | 7.0 | 12.0 | 0.00 | 0.00 | 0.00 | 76 | 1009.1 |
| 20260902182506 | 83 | 225 | 9.0 | 12.0 | 0.00 | 0.00 | 0.00 | 76 | 1009.1 |
| 20260902182007 | 83 | 235 | 9.0 | 12.0 | 0.00 | 0.00 | 0.00 | 75 | 1010.1 |
| 20260902181505 | 83 | 233 | 9.0 | 12.0 | 0.00 | 0.00 | 0.00 | 75 | 1010.1 |
| 20260902181007 | 83 | 240 | 9.0 | 12.0 | 0.00 | 0.00 | 0.00 | 74 | 1010.1 |